iso_date,Year,Hour,Min,DOY,POS_DOY,Lat,Lon,BP,Ts,Ta,has_bp,has_ts,has_ta,BuoyID,Buoy_Type,Buoy_Owner,Logistics,Hemisphere
2020-07-07T00:04:01Z,2020,0,4,189.0028,189.0028,65.357,-56.631,-999.0,3.86,-999.0,no,yes,no,300234066511010,SVPGHI,AOML,UNKNOWN,North
2020-07-07T01:00:02Z,2020,1,0,189.0417,189.0417,65.364,-56.646,-999.0,3.81,-999.0,no,yes,no,300234066511010,SVPGHI,AOML,UNKNOWN,North
2020-07-07T01:59:57Z,2020,2,0,189.0833,189.0833,65.369,-56.656,-999.0,3.79,-999.0,no,yes,no,300234066511010,SVPGHI,AOML,UNKNOWN,North
2020-07-07T03:03:01Z,2020,3,3,189.1271,189.1271,65.378,-56.66,-999.0,3.79,-999.0,no,yes,no,300234066511010,SVPGHI,AOML,UNKNOWN,North
2020-07-07T04:02:03Z,2020,4,2,189.1681,189.1681,65.379,-56.656,-999.0,3.78,-999.0,no,yes,no,300234066511010,SVPGHI,AOML,UNKNOWN,North
2020-07-07T05:01:58Z,2020,5,2,189.2097,189.2097,65.381,-56.655,-999.0,3.78,-999.0,no,yes,no,300234066511010,SVPGHI,AOML,UNKNOWN,North
2020-07-07T06:00:00Z,2020,6,0,189.25,189.25,65.377,-56.649,-999.0,3.78,-999.0,no,yes,no,300234066511010,SVPGHI,AOML,UNKNOWN,North
2020-07-07T07:00:02Z,2020,7,0,189.2917,189.2917,65.37,-56.642,-999.0,3.77,-999.0,no,yes,no,300234066511010,SVPGHI,AOML,UNKNOWN,North
2020-07-07T08:00:57Z,2020,8,1,189.334,189.334,65.359,-56.638,-999.0,3.77,-999.0,no,yes,no,300234066511010,SVPGHI,AOML,UNKNOWN,North
2020-07-07T09:00:00Z,2020,9,0,189.375,189.375,65.35,-56.64,-999.0,3.78,-999.0,no,yes,no,300234066511010,SVPGHI,AOML,UNKNOWN,North
2020-07-07T10:00:02Z,2020,10,0,189.4167,189.4167,65.347,-56.65,-999.0,3.77,-999.0,no,yes,no,300234066511010,SVPGHI,AOML,UNKNOWN,North
2020-07-07T10:59:57Z,2020,11,0,189.4583,189.4583,65.34,-56.656,-999.0,3.76,-999.0,no,yes,no,300234066511010,SVPGHI,AOML,UNKNOWN,North
2020-07-07T12:01:00Z,2020,12,1,189.5007,189.5007,65.337,-56.668,-999.0,3.78,-999.0,no,yes,no,300234066511010,SVPGHI,AOML,UNKNOWN,North
2020-07-07T13:00:02Z,2020,13,0,189.5417,189.5417,65.337,-56.679,-999.0,3.8,-999.0,no,yes,no,300234066511010,SVPGHI,AOML,UNKNOWN,North
2020-07-07T13:59:57Z,2020,14,0,189.5833,189.5833,65.338,-56.686,-999.0,3.83,-999.0,no,yes,no,300234066511010,SVPGHI,AOML,UNKNOWN,North
2020-07-07T15:00:00Z,2020,15,0,189.625,189.625,65.343,-56.693,-999.0,3.86,-999.0,no,yes,no,300234066511010,SVPGHI,AOML,UNKNOWN,North
2020-07-07T16:00:02Z,2020,16,0,189.6667,189.6667,65.347,-56.693,-999.0,3.86,-999.0,no,yes,no,300234066511010,SVPGHI,AOML,UNKNOWN,North
2020-07-07T16:59:57Z,2020,17,0,189.7083,189.7083,65.348,-56.689,-999.0,3.85,-999.0,no,yes,no,300234066511010,SVPGHI,AOML,UNKNOWN,North
2020-07-07T18:00:00Z,2020,18,0,189.75,189.75,65.347,-56.685,-999.0,3.87,-999.0,no,yes,no,300234066511010,SVPGHI,AOML,UNKNOWN,North
2020-07-07T19:00:02Z,2020,19,0,189.7917,189.7917,65.345,-56.681,-999.0,3.86,-999.0,no,yes,no,300234066511010,SVPGHI,AOML,UNKNOWN,North
2020-07-07T19:59:57Z,2020,20,0,189.8333,189.8333,65.34,-56.681,-999.0,3.84,-999.0,no,yes,no,300234066511010,SVPGHI,AOML,UNKNOWN,North
2020-07-07T21:00:00Z,2020,21,0,189.875,189.875,65.338,-56.681,-999.0,3.84,-999.0,no,yes,no,300234066511010,SVPGHI,AOML,UNKNOWN,North
2020-07-07T22:00:02Z,2020,22,0,189.9167,189.9167,65.334,-56.684,-999.0,3.83,-999.0,no,yes,no,300234066511010,SVPGHI,AOML,UNKNOWN,North
2020-07-07T22:59:57Z,2020,23,0,189.9583,189.9583,65.33,-56.683,-999.0,3.83,-999.0,no,yes,no,300234066511010,SVPGHI,AOML,UNKNOWN,North
2020-07-08T00:00:00Z,2020,0,0,190.0,190.0,65.332,-56.695,-999.0,3.83,-999.0,no,yes,no,300234066511010,SVPGHI,AOML,UNKNOWN,North
2020-07-08T01:00:02Z,2020,1,0,190.0417,190.0417,65.34,-56.71,-999.0,3.83,-999.0,no,yes,no,300234066511010,SVPGHI,AOML,UNKNOWN,North
2020-07-08T01:59:57Z,2020,2,0,190.0833,190.0833,65.353,-56.717,-999.0,3.82,-999.0,no,yes,no,300234066511010,SVPGHI,AOML,UNKNOWN,North
2020-07-08T03:00:00Z,2020,3,0,190.125,190.125,65.363,-56.717,-999.0,3.81,-999.0,no,yes,no,300234066511010,SVPGHI,AOML,UNKNOWN,North
2020-07-08T04:00:02Z,2020,4,0,190.1667,190.1667,65.371,-56.713,-999.0,3.8,-999.0,no,yes,no,300234066511010,SVPGHI,AOML,UNKNOWN,North
2020-07-08T04:59:57Z,2020,5,0,190.2083,190.2083,65.377,-56.705,-999.0,3.78,-999.0,no,yes,no,300234066511010,SVPGHI,AOML,UNKNOWN,North
2020-07-08T06:00:00Z,2020,6,0,190.25,190.25,65.379,-56.691,-999.0,3.77,-999.0,no,yes,no,300234066511010,SVPGHI,AOML,UNKNOWN,North
2020-07-08T07:00:02Z,2020,7,0,190.2917,190.2917,65.377,-56.677,-999.0,3.76,-999.0,no,yes,no,300234066511010,SVPGHI,AOML,UNKNOWN,North
2020-07-08T07:59:57Z,2020,8,0,190.3333,190.3333,65.371,-56.661,-999.0,3.76,-999.0,no,yes,no,300234066511010,SVPGHI,AOML,UNKNOWN,North
2020-07-08T09:04:01Z,2020,9,4,190.3778,190.3778,65.362,-56.648,-999.0,3.74,-999.0,no,yes,no,300234066511010,SVPGHI,AOML,UNKNOWN,North
2020-07-08T10:02:03Z,2020,10,2,190.4181,190.4181,65.359,-56.644,-999.0,3.75,-999.0,no,yes,no,300234066511010,SVPGHI,AOML,UNKNOWN,North
2020-07-08T11:03:59Z,2020,11,4,190.4611,190.4611,65.344,-56.641,-999.0,3.75,-999.0,no,yes,no,300234066511010,SVPGHI,AOML,UNKNOWN,North
2020-07-08T12:00:00Z,2020,12,0,190.5,190.5,65.339,-56.644,-999.0,3.76,-999.0,no,yes,no,300234066511010,SVPGHI,AOML,UNKNOWN,North
2020-07-08T13:00:02Z,2020,13,0,190.5417,190.5417,65.335,-56.65,-999.0,3.77,-999.0,no,yes,no,300234066511010,SVPGHI,AOML,UNKNOWN,North
2020-07-08T13:59:57Z,2020,14,0,190.5833,190.5833,65.333,-56.655,-999.0,3.77,-999.0,no,yes,no,300234066511010,SVPGHI,AOML,UNKNOWN,North
2020-07-08T15:04:01Z,2020,15,4,190.6278,190.6278,65.333,-56.661,-999.0,3.79,-999.0,no,yes,no,300234066511010,SVPGHI,AOML,UNKNOWN,North
2020-07-08T16:00:02Z,2020,16,0,190.6667,190.6667,65.334,-56.664,-999.0,3.79,-999.0,no,yes,no,300234066511010,SVPGHI,AOML,UNKNOWN,North
2020-07-08T16:59:57Z,2020,17,0,190.7083,190.7083,65.337,-56.667,-999.0,3.79,-999.0,no,yes,no,300234066511010,SVPGHI,AOML,UNKNOWN,North
2020-07-08T18:00:00Z,2020,18,0,190.75,190.75,65.34,-56.665,-999.0,3.8,-999.0,no,yes,no,300234066511010,SVPGHI,AOML,UNKNOWN,North
2020-07-08T19:00:02Z,2020,19,0,190.7917,190.7917,65.34,-56.658,-999.0,3.8,-999.0,no,yes,no,300234066511010,SVPGHI,AOML,UNKNOWN,North
2020-07-08T19:59:57Z,2020,20,0,190.8333,190.8333,65.34,-56.651,-999.0,3.81,-999.0,no,yes,no,300234066511010,SVPGHI,AOML,UNKNOWN,North
2020-07-08T21:00:00Z,2020,21,0,190.875,190.875,65.336,-56.642,-999.0,3.81,-999.0,no,yes,no,300234066511010,SVPGHI,AOML,UNKNOWN,North
2020-07-08T22:00:02Z,2020,22,0,190.9167,190.9167,65.331,-56.639,-999.0,3.81,-999.0,no,yes,no,300234066511010,SVPGHI,AOML,UNKNOWN,North
2020-07-08T22:59:57Z,2020,23,0,190.9583,190.9583,65.327,-56.637,-999.0,3.81,-999.0,no,yes,no,300234066511010,SVPGHI,AOML,UNKNOWN,North
2020-07-09T00:00:00Z,2020,0,0,191.0,191.0,65.326,-56.639,-999.0,3.81,-999.0,no,yes,no,300234066511010,SVPGHI,AOML,UNKNOWN,North
2020-07-09T01:01:03Z,2020,1,1,191.0424,191.0424,65.331,-56.645,-999.0,3.82,-999.0,no,yes,no,300234066511010,SVPGHI,AOML,UNKNOWN,North
2020-07-09T01:59:57Z,2020,2,0,191.0833,191.0833,65.335,-56.644,-999.0,3.82,-999.0,no,yes,no,300234066511010,SVPGHI,AOML,UNKNOWN,North
2020-07-09T03:00:00Z,2020,3,0,191.125,191.125,65.338,-56.646,-999.0,3.82,-999.0,no,yes,no,300234066511010,SVPGHI,AOML,UNKNOWN,North
2020-07-09T04:00:02Z,2020,4,0,191.1667,191.1667,65.342,-56.646,-999.0,3.83,-999.0,no,yes,no,300234066511010,SVPGHI,AOML,UNKNOWN,North
2020-07-09T05:00:57Z,2020,5,1,191.209,191.209,65.345,-56.645,-999.0,3.83,-999.0,no,yes,no,300234066511010,SVPGHI,AOML,UNKNOWN,North
2020-07-09T06:01:00Z,2020,6,1,191.2507,191.2507,65.345,-56.642,-999.0,3.85,-999.0,no,yes,no,300234066511010,SVPGHI,AOML,UNKNOWN,North
2020-07-09T07:00:02Z,2020,7,0,191.2917,191.2917,65.343,-56.642,-999.0,3.86,-999.0,no,yes,no,300234066511010,SVPGHI,AOML,UNKNOWN,North
2020-07-09T08:03:59Z,2020,8,4,191.3361,191.3361,65.338,-56.641,-999.0,3.87,-999.0,no,yes,no,300234066511010,SVPGHI,AOML,UNKNOWN,North
2020-07-09T09:00:00Z,2020,9,0,191.375,191.375,65.333,-56.637,-999.0,3.86,-999.0,no,yes,no,300234066511010,SVPGHI,AOML,UNKNOWN,North
2020-07-09T10:00:02Z,2020,10,0,191.4167,191.4167,65.327,-56.634,-999.0,3.89,-999.0,no,yes,no,300234066511010,SVPGHI,AOML,UNKNOWN,North
2020-07-09T10:59:57Z,2020,11,0,191.4583,191.4583,65.321,-56.63,-999.0,3.86,-999.0,no,yes,no,300234066511010,SVPGHI,AOML,UNKNOWN,North
2020-07-09T12:00:00Z,2020,12,0,191.5,191.5,65.318,-56.63,-999.0,3.79,-999.0,no,yes,no,300234066511010,SVPGHI,AOML,UNKNOWN,North
2020-07-09T13:00:02Z,2020,13,0,191.5417,191.5417,65.315,-56.632,-999.0,3.79,-999.0,no,yes,no,300234066511010,SVPGHI,AOML,UNKNOWN,North
2020-07-09T13:59:57Z,2020,14,0,191.5833,191.5833,65.311,-56.633,-999.0,3.52,-999.0,no,yes,no,300234066511010,SVPGHI,AOML,UNKNOWN,North
2020-07-09T15:03:01Z,2020,15,3,191.6271,191.6271,65.309,-56.638,-999.0,3.58,-999.0,no,yes,no,300234066511010,SVPGHI,AOML,UNKNOWN,North
2020-07-09T16:00:02Z,2020,16,0,191.6667,191.6667,65.308,-56.642,-999.0,3.56,-999.0,no,yes,no,300234066511010,SVPGHI,AOML,UNKNOWN,North
2020-07-09T16:59:57Z,2020,17,0,191.7083,191.7083,65.305,-56.646,-999.0,3.56,-999.0,no,yes,no,300234066511010,SVPGHI,AOML,UNKNOWN,North
2020-07-09T18:00:00Z,2020,18,0,191.75,191.75,65.302,-56.648,-999.0,3.67,-999.0,no,yes,no,300234066511010,SVPGHI,AOML,UNKNOWN,North
2020-07-09T19:00:02Z,2020,19,0,191.7917,191.7917,65.298,-56.65,-999.0,3.76,-999.0,no,yes,no,300234066511010,SVPGHI,AOML,UNKNOWN,North
2020-07-09T20:02:58Z,2020,20,3,191.8354,191.8354,65.292,-56.653,-999.0,3.72,-999.0,no,yes,no,300234066511010,SVPGHI,AOML,UNKNOWN,North
2020-07-09T21:04:01Z,2020,21,4,191.8778,191.8778,65.288,-56.662,-999.0,3.72,-999.0,no,yes,no,300234066511010,SVPGHI,AOML,UNKNOWN,North
2020-07-09T22:00:02Z,2020,22,0,191.9167,191.9167,65.285,-56.675,-999.0,3.7,-999.0,no,yes,no,300234066511010,SVPGHI,AOML,UNKNOWN,North
2020-07-09T23:03:59Z,2020,23,4,191.9611,191.9611,65.28,-56.682,-999.0,3.64,-999.0,no,yes,no,300234066511010,SVPGHI,AOML,UNKNOWN,North
2020-07-10T00:00:00Z,2020,0,0,192.0,192.0,65.282,-56.69,-999.0,3.55,-999.0,no,yes,no,300234066511010,SVPGHI,AOML,UNKNOWN,North
2020-07-10T01:00:02Z,2020,1,0,192.0417,192.0417,65.283,-56.696,-999.0,3.48,-999.0,no,yes,no,300234066511010,SVPGHI,AOML,UNKNOWN,North
2020-07-10T01:59:57Z,2020,2,0,192.0833,192.0833,65.287,-56.696,-999.0,3.52,-999.0,no,yes,no,300234066511010,SVPGHI,AOML,UNKNOWN,North
2020-07-10T03:02:00Z,2020,3,2,192.1264,192.1264,65.289,-56.688,-999.0,3.57,-999.0,no,yes,no,300234066511010,SVPGHI,AOML,UNKNOWN,North
2020-07-10T04:00:02Z,2020,4,0,192.1667,192.1667,65.289,-56.681,-999.0,3.58,-999.0,no,yes,no,300234066511010,SVPGHI,AOML,UNKNOWN,North
2020-07-10T04:59:57Z,2020,5,0,192.2083,192.2083,65.286,-56.673,-999.0,3.58,-999.0,no,yes,no,300234066511010,SVPGHI,AOML,UNKNOWN,North
2020-07-10T06:00:00Z,2020,6,0,192.25,192.25,65.281,-56.67,-999.0,3.6,-999.0,no,yes,no,300234066511010,SVPGHI,AOML,UNKNOWN,North
2020-07-10T07:03:56Z,2020,7,4,192.2944,192.2944,65.274,-56.674,-999.0,3.61,-999.0,no,yes,no,300234066511010,SVPGHI,AOML,UNKNOWN,North
2020-07-10T08:02:58Z,2020,8,3,192.3354,192.3354,65.267,-56.679,-999.0,3.58,-999.0,no,yes,no,300234066511010,SVPGHI,AOML,UNKNOWN,North
2020-07-10T09:00:00Z,2020,9,0,192.375,192.375,65.26,-56.688,-999.0,3.33,-999.0,no,yes,no,300234066511010,SVPGHI,AOML,UNKNOWN,North
2020-07-10T10:00:02Z,2020,10,0,192.4167,192.4167,65.255,-56.701,-999.0,3.27,-999.0,no,yes,no,300234066511010,SVPGHI,AOML,UNKNOWN,North
2020-07-10T10:59:57Z,2020,11,0,192.4583,192.4583,65.253,-56.71,-999.0,3.35,-999.0,no,yes,no,300234066511010,SVPGHI,AOML,UNKNOWN,North
2020-07-10T12:01:00Z,2020,12,1,192.5007,192.5007,65.252,-56.711,-999.0,3.39,-999.0,no,yes,no,300234066511010,SVPGHI,AOML,UNKNOWN,North
2020-07-10T13:00:02Z,2020,13,0,192.5417,192.5417,65.252,-56.707,-999.0,3.5,-999.0,no,yes,no,300234066511010,SVPGHI,AOML,UNKNOWN,North
2020-07-10T13:59:57Z,2020,14,0,192.5833,192.5833,65.251,-56.7,-999.0,3.61,-999.0,no,yes,no,300234066511010,SVPGHI,AOML,UNKNOWN,North
2020-07-10T15:00:00Z,2020,15,0,192.625,192.625,65.248,-56.693,-999.0,3.72,-999.0,no,yes,no,300234066511010,SVPGHI,AOML,UNKNOWN,North
2020-07-10T16:00:02Z,2020,16,0,192.6667,192.6667,65.245,-56.687,-999.0,3.79,-999.0,no,yes,no,300234066511010,SVPGHI,AOML,UNKNOWN,North
2020-07-10T16:59:57Z,2020,17,0,192.7083,192.7083,65.24,-56.686,-999.0,3.89,-999.0,no,yes,no,300234066511010,SVPGHI,AOML,UNKNOWN,North
2020-07-10T18:00:00Z,2020,18,0,192.75,192.75,65.235,-56.691,-999.0,4.0,-999.0,no,yes,no,300234066511010,SVPGHI,AOML,UNKNOWN,North
2020-07-10T19:00:02Z,2020,19,0,192.7917,192.7917,65.231,-56.696,-999.0,4.08,-999.0,no,yes,no,300234066511010,SVPGHI,AOML,UNKNOWN,North
2020-07-10T20:00:57Z,2020,20,1,192.834,192.834,65.228,-56.707,-999.0,4.18,-999.0,no,yes,no,300234066511010,SVPGHI,AOML,UNKNOWN,North
2020-07-10T21:00:00Z,2020,21,0,192.875,192.875,65.228,-56.717,-999.0,4.07,-999.0,no,yes,no,300234066511010,SVPGHI,AOML,UNKNOWN,North
2020-07-10T22:00:02Z,2020,22,0,192.9167,192.9167,65.229,-56.726,-999.0,3.94,-999.0,no,yes,no,300234066511010,SVPGHI,AOML,UNKNOWN,North
2020-07-10T22:59:57Z,2020,23,0,192.9583,192.9583,65.232,-56.729,-999.0,3.82,-999.0,no,yes,no,300234066511010,SVPGHI,AOML,UNKNOWN,North
2020-07-11T00:00:00Z,2020,0,0,193.0,193.0,65.235,-56.729,-999.0,3.73,-999.0,no,yes,no,300234066511010,SVPGHI,AOML,UNKNOWN,North
2020-07-11T01:00:02Z,2020,1,0,193.0417,193.0417,65.237,-56.722,-999.0,3.6,-999.0,no,yes,no,300234066511010,SVPGHI,AOML,UNKNOWN,North
2020-07-11T01:59:57Z,2020,2,0,193.0833,193.0833,65.238,-56.716,-999.0,3.55,-999.0,no,yes,no,300234066511010,SVPGHI,AOML,UNKNOWN,North
2020-07-11T03:00:00Z,2020,3,0,193.125,193.125,65.237,-56.708,-999.0,3.57,-999.0,no,yes,no,300234066511010,SVPGHI,AOML,UNKNOWN,North
2020-07-11T04:00:02Z,2020,4,0,193.1667,193.1667,65.238,-56.699,-999.0,3.57,-999.0,no,yes,no,300234066511010,SVPGHI,AOML,UNKNOWN,North
2020-07-11T04:59:57Z,2020,5,0,193.2083,193.2083,65.238,-56.693,-999.0,3.56,-999.0,no,yes,no,300234066511010,SVPGHI,AOML,UNKNOWN,North
2020-07-11T06:00:00Z,2020,6,0,193.25,193.25,65.235,-56.692,-999.0,3.56,-999.0,no,yes,no,300234066511010,SVPGHI,AOML,UNKNOWN,North
2020-07-11T07:00:02Z,2020,7,0,193.2917,193.2917,65.231,-56.695,-999.0,3.57,-999.0,no,yes,no,300234066511010,SVPGHI,AOML,UNKNOWN,North
2020-07-11T07:59:57Z,2020,8,0,193.3333,193.3333,65.228,-56.699,-999.0,3.56,-999.0,no,yes,no,300234066511010,SVPGHI,AOML,UNKNOWN,North
2020-07-11T09:00:00Z,2020,9,0,193.375,193.375,65.224,-56.705,-999.0,3.57,-999.0,no,yes,no,300234066511010,SVPGHI,AOML,UNKNOWN,North
2020-07-11T10:00:02Z,2020,10,0,193.4167,193.4167,65.222,-56.71,-999.0,3.62,-999.0,no,yes,no,300234066511010,SVPGHI,AOML,UNKNOWN,North
2020-07-11T10:59:57Z,2020,11,0,193.4583,193.4583,65.22,-56.714,-999.0,3.69,-999.0,no,yes,no,300234066511010,SVPGHI,AOML,UNKNOWN,North
2020-07-11T12:00:00Z,2020,12,0,193.5,193.5,65.219,-56.712,-999.0,3.62,-999.0,no,yes,no,300234066511010,SVPGHI,AOML,UNKNOWN,North
2020-07-11T13:00:02Z,2020,13,0,193.5417,193.5417,65.217,-56.708,-999.0,3.73,-999.0,no,yes,no,300234066511010,SVPGHI,AOML,UNKNOWN,North
2020-07-11T13:59:57Z,2020,14,0,193.5833,193.5833,65.215,-56.701,-999.0,3.79,-999.0,no,yes,no,300234066511010,SVPGHI,AOML,UNKNOWN,North
2020-07-11T15:00:00Z,2020,15,0,193.625,193.625,65.213,-56.694,-999.0,3.88,-999.0,no,yes,no,300234066511010,SVPGHI,AOML,UNKNOWN,North
2020-07-11T16:00:02Z,2020,16,0,193.6667,193.6667,65.211,-56.689,-999.0,3.97,-999.0,no,yes,no,300234066511010,SVPGHI,AOML,UNKNOWN,North
2020-07-11T16:59:57Z,2020,17,0,193.7083,193.7083,65.209,-56.685,-999.0,3.85,-999.0,no,yes,no,300234066511010,SVPGHI,AOML,UNKNOWN,North
2020-07-11T18:00:00Z,2020,18,0,193.75,193.75,65.207,-56.686,-999.0,3.94,-999.0,no,yes,no,300234066511010,SVPGHI,AOML,UNKNOWN,North
2020-07-11T19:00:02Z,2020,19,0,193.7917,193.7917,65.206,-56.691,-999.0,4.13,-999.0,no,yes,no,300234066511010,SVPGHI,AOML,UNKNOWN,North
2020-07-11T19:59:57Z,2020,20,0,193.8333,193.8333,65.207,-56.695,-999.0,4.15,-999.0,no,yes,no,300234066511010,SVPGHI,AOML,UNKNOWN,North
2020-07-11T21:00:00Z,2020,21,0,193.875,193.875,65.209,-56.698,-999.0,4.22,-999.0,no,yes,no,300234066511010,SVPGHI,AOML,UNKNOWN,North
2020-07-11T22:00:02Z,2020,22,0,193.9167,193.9167,65.21,-56.697,-999.0,4.27,-999.0,no,yes,no,300234066511010,SVPGHI,AOML,UNKNOWN,North
2020-07-11T22:59:57Z,2020,23,0,193.9583,193.9583,65.21,-56.695,-999.0,4.19,-999.0,no,yes,no,300234066511010,SVPGHI,AOML,UNKNOWN,North
2020-07-12T00:00:00Z,2020,0,0,194.0,194.0,65.21,-56.692,-999.0,4.02,-999.0,no,yes,no,300234066511010,SVPGHI,AOML,UNKNOWN,North
2020-07-12T01:00:02Z,2020,1,0,194.0417,194.0417,65.211,-56.688,-999.0,4.04,-999.0,no,yes,no,300234066511010,SVPGHI,AOML,UNKNOWN,North
2020-07-12T01:59:57Z,2020,2,0,194.0833,194.0833,65.211,-56.685,-999.0,4.08,-999.0,no,yes,no,300234066511010,SVPGHI,AOML,UNKNOWN,North
2020-07-12T03:00:00Z,2020,3,0,194.125,194.125,65.212,-56.68,-999.0,3.99,-999.0,no,yes,no,300234066511010,SVPGHI,AOML,UNKNOWN,North
2020-07-12T04:00:02Z,2020,4,0,194.1667,194.1667,65.214,-56.673,-999.0,3.91,-999.0,no,yes,no,300234066511010,SVPGHI,AOML,UNKNOWN,North
2020-07-12T04:59:57Z,2020,5,0,194.2083,194.2083,65.214,-56.668,-999.0,3.88,-999.0,no,yes,no,300234066511010,SVPGHI,AOML,UNKNOWN,North
2020-07-12T06:00:00Z,2020,6,0,194.25,194.25,65.215,-56.667,-999.0,3.91,-999.0,no,yes,no,300234066511010,SVPGHI,AOML,UNKNOWN,North
2020-07-12T07:00:02Z,2020,7,0,194.2917,194.2917,65.216,-56.664,-999.0,3.92,-999.0,no,yes,no,300234066511010,SVPGHI,AOML,UNKNOWN,North
2020-07-12T07:59:57Z,2020,8,0,194.3333,194.3333,65.216,-56.66,-999.0,3.96,-999.0,no,yes,no,300234066511010,SVPGHI,AOML,UNKNOWN,North
2020-07-12T09:00:00Z,2020,9,0,194.375,194.375,65.215,-56.657,-999.0,3.98,-999.0,no,yes,no,300234066511010,SVPGHI,AOML,UNKNOWN,North
2020-07-12T10:00:02Z,2020,10,0,194.4167,194.4167,65.211,-56.649,-999.0,3.97,-999.0,no,yes,no,300234066511010,SVPGHI,AOML,UNKNOWN,North
2020-07-12T10:59:57Z,2020,11,0,194.4583,194.4583,65.207,-56.646,-999.0,3.97,-999.0,no,yes,no,300234066511010,SVPGHI,AOML,UNKNOWN,North
2020-07-12T12:00:00Z,2020,12,0,194.5,194.5,65.203,-56.644,-999.0,4.01,-999.0,no,yes,no,300234066511010,SVPGHI,AOML,UNKNOWN,North
2020-07-12T13:00:02Z,2020,13,0,194.5417,194.5417,65.199,-56.642,-999.0,3.93,-999.0,no,yes,no,300234066511010,SVPGHI,AOML,UNKNOWN,North
2020-07-12T13:59:57Z,2020,14,0,194.5833,194.5833,65.197,-56.643,-999.0,3.98,-999.0,no,yes,no,300234066511010,SVPGHI,AOML,UNKNOWN,North
2020-07-12T15:00:00Z,2020,15,0,194.625,194.625,65.197,-56.644,-999.0,4.05,-999.0,no,yes,no,300234066511010,SVPGHI,AOML,UNKNOWN,North
2020-07-12T16:00:02Z,2020,16,0,194.6667,194.6667,65.199,-56.642,-999.0,4.16,-999.0,no,yes,no,300234066511010,SVPGHI,AOML,UNKNOWN,North
2020-07-12T16:59:57Z,2020,17,0,194.7083,194.7083,65.201,-56.638,-999.0,4.3,-999.0,no,yes,no,300234066511010,SVPGHI,AOML,UNKNOWN,North
2020-07-12T18:00:00Z,2020,18,0,194.75,194.75,65.204,-56.632,-999.0,4.2,-999.0,no,yes,no,300234066511010,SVPGHI,AOML,UNKNOWN,North
2020-07-12T19:00:02Z,2020,19,0,194.7917,194.7917,65.206,-56.627,-999.0,4.34,-999.0,no,yes,no,300234066511010,SVPGHI,AOML,UNKNOWN,North
2020-07-12T19:59:57Z,2020,20,0,194.8333,194.8333,65.206,-56.621,-999.0,4.39,-999.0,no,yes,no,300234066511010,SVPGHI,AOML,UNKNOWN,North
2020-07-12T21:00:00Z,2020,21,0,194.875,194.875,65.204,-56.616,-999.0,4.47,-999.0,no,yes,no,300234066511010,SVPGHI,AOML,UNKNOWN,North
2020-07-12T22:00:02Z,2020,22,0,194.9167,194.9167,65.201,-56.614,-999.0,4.47,-999.0,no,yes,no,300234066511010,SVPGHI,AOML,UNKNOWN,North
2020-07-12T22:59:57Z,2020,23,0,194.9583,194.9583,65.199,-56.619,-999.0,4.41,-999.0,no,yes,no,300234066511010,SVPGHI,AOML,UNKNOWN,North
2020-07-13T00:00:00Z,2020,0,0,195.0,195.0,65.2,-56.623,-999.0,4.35,-999.0,no,yes,no,300234066511010,SVPGHI,AOML,UNKNOWN,North
2020-07-13T01:00:02Z,2020,1,0,195.0417,195.0417,65.202,-56.627,-999.0,4.35,-999.0,no,yes,no,300234066511010,SVPGHI,AOML,UNKNOWN,North
2020-07-13T01:59:57Z,2020,2,0,195.0833,195.0833,65.203,-56.624,-999.0,4.27,-999.0,no,yes,no,300234066511010,SVPGHI,AOML,UNKNOWN,North
2020-07-13T03:00:00Z,2020,3,0,195.125,195.125,65.204,-56.619,-999.0,4.3,-999.0,no,yes,no,300234066511010,SVPGHI,AOML,UNKNOWN,North
2020-07-13T04:03:56Z,2020,4,4,195.1694,195.1694,65.205,-56.612,-999.0,4.32,-999.0,no,yes,no,300234066511010,SVPGHI,AOML,UNKNOWN,North
2020-07-13T04:59:57Z,2020,5,0,195.2083,195.2083,65.206,-56.603,-999.0,4.28,-999.0,no,yes,no,300234066511010,SVPGHI,AOML,UNKNOWN,North
2020-07-13T06:00:00Z,2020,6,0,195.25,195.25,65.205,-56.599,-999.0,4.27,-999.0,no,yes,no,300234066511010,SVPGHI,AOML,UNKNOWN,North
2020-07-13T07:03:56Z,2020,7,4,195.2944,195.2944,65.205,-56.599,-999.0,4.21,-999.0,no,yes,no,300234066511010,SVPGHI,AOML,UNKNOWN,North
2020-07-13T09:00:00Z,2020,9,0,195.375,195.375,65.2,-56.599,-999.0,4.17,-999.0,no,yes,no,300234066511010,SVPGHI,AOML,UNKNOWN,North
2020-07-13T10:00:02Z,2020,10,0,195.4167,195.4167,65.198,-56.601,-999.0,4.17,-999.0,no,yes,no,300234066511010,SVPGHI,AOML,UNKNOWN,North
2020-07-13T10:59:57Z,2020,11,0,195.4583,195.4583,65.194,-56.604,-999.0,4.18,-999.0,no,yes,no,300234066511010,SVPGHI,AOML,UNKNOWN,North
2020-07-13T12:01:00Z,2020,12,1,195.5007,195.5007,65.189,-56.608,-999.0,4.18,-999.0,no,yes,no,300234066511010,SVPGHI,AOML,UNKNOWN,North
2020-07-13T13:00:02Z,2020,13,0,195.5417,195.5417,65.186,-56.618,-999.0,4.2,-999.0,no,yes,no,300234066511010,SVPGHI,AOML,UNKNOWN,North
2020-07-13T13:59:57Z,2020,14,0,195.5833,195.5833,65.187,-56.62,-999.0,4.2,-999.0,no,yes,no,300234066511010,SVPGHI,AOML,UNKNOWN,North
2020-07-13T15:00:00Z,2020,15,0,195.625,195.625,65.188,-56.621,-999.0,4.22,-999.0,no,yes,no,300234066511010,SVPGHI,AOML,UNKNOWN,North
2020-07-13T16:03:56Z,2020,16,4,195.6694,195.6694,65.187,-56.622,-999.0,4.23,-999.0,no,yes,no,300234066511010,SVPGHI,AOML,UNKNOWN,North
2020-07-13T16:59:57Z,2020,17,0,195.7083,195.7083,65.189,-56.618,-999.0,4.26,-999.0,no,yes,no,300234066511010,SVPGHI,AOML,UNKNOWN,North
2020-07-13T18:00:00Z,2020,18,0,195.75,195.75,65.19,-56.616,-999.0,4.28,-999.0,no,yes,no,300234066511010,SVPGHI,AOML,UNKNOWN,North
2020-07-13T19:00:02Z,2020,19,0,195.7917,195.7917,65.193,-56.616,-999.0,4.3,-999.0,no,yes,no,300234066511010,SVPGHI,AOML,UNKNOWN,North
2020-07-13T19:59:57Z,2020,20,0,195.8333,195.8333,65.193,-56.612,-999.0,4.31,-999.0,no,yes,no,300234066511010,SVPGHI,AOML,UNKNOWN,North
2020-07-13T21:00:00Z,2020,21,0,195.875,195.875,65.193,-56.611,-999.0,4.3,-999.0,no,yes,no,300234066511010,SVPGHI,AOML,UNKNOWN,North
2020-07-13T22:00:02Z,2020,22,0,195.9167,195.9167,65.192,-56.615,-999.0,4.3,-999.0,no,yes,no,300234066511010,SVPGHI,AOML,UNKNOWN,North
2020-07-13T22:59:57Z,2020,23,0,195.9583,195.9583,65.193,-56.617,-999.0,4.3,-999.0,no,yes,no,300234066511010,SVPGHI,AOML,UNKNOWN,North
2020-07-14T00:00:00Z,2020,0,0,196.0,196.0,65.194,-56.617,-999.0,4.29,-999.0,no,yes,no,300234066511010,SVPGHI,AOML,UNKNOWN,North
2020-07-14T01:00:02Z,2020,1,0,196.0417,196.0417,65.194,-56.618,-999.0,4.28,-999.0,no,yes,no,300234066511010,SVPGHI,AOML,UNKNOWN,North
2020-07-14T01:59:57Z,2020,2,0,196.0833,196.0833,65.192,-56.623,-999.0,4.27,-999.0,no,yes,no,300234066511010,SVPGHI,AOML,UNKNOWN,North
2020-07-14T03:00:00Z,2020,3,0,196.125,196.125,65.195,-56.619,-999.0,4.24,-999.0,no,yes,no,300234066511010,SVPGHI,AOML,UNKNOWN,North
2020-07-14T04:00:02Z,2020,4,0,196.1667,196.1667,65.197,-56.621,-999.0,4.22,-999.0,no,yes,no,300234066511010,SVPGHI,AOML,UNKNOWN,North
2020-07-14T04:59:57Z,2020,5,0,196.2083,196.2083,65.2,-56.617,-999.0,4.19,-999.0,no,yes,no,300234066511010,SVPGHI,AOML,UNKNOWN,North
2020-07-14T06:00:00Z,2020,6,0,196.25,196.25,65.201,-56.611,-999.0,4.17,-999.0,no,yes,no,300234066511010,SVPGHI,AOML,UNKNOWN,North
2020-07-14T07:00:02Z,2020,7,0,196.2917,196.2917,65.201,-56.602,-999.0,4.15,-999.0,no,yes,no,300234066511010,SVPGHI,AOML,UNKNOWN,North
2020-07-14T07:59:57Z,2020,8,0,196.3333,196.3333,65.2,-56.592,-999.0,4.15,-999.0,no,yes,no,300234066511010,SVPGHI,AOML,UNKNOWN,North
2020-07-14T09:00:00Z,2020,9,0,196.375,196.375,65.198,-56.586,-999.0,4.17,-999.0,no,yes,no,300234066511010,SVPGHI,AOML,UNKNOWN,North
2020-07-14T10:00:02Z,2020,10,0,196.4167,196.4167,65.195,-56.585,-999.0,4.25,-999.0,no,yes,no,300234066511010,SVPGHI,AOML,UNKNOWN,North
2020-07-14T11:00:57Z,2020,11,1,196.459,196.459,65.191,-56.59,-999.0,4.45,-999.0,no,yes,no,300234066511010,SVPGHI,AOML,UNKNOWN,North